Flag for Germany Weather past 2 weeks in Schwäbisch Gmünd, Baden-Württemberg, Germany

Now
55 °F

Fog.


Feels Like: 55 °F
Forecast: 51 / 61 °F
Wind: 5 mph from West

Location: Stoetten

Current Time: Aug 30, 2014 at 9:17:54 AM

Latest Report: Aug 30, 2014 at 8:00 AM


Visibility: 13 mi

Pressure: 30.11 "Hg

Humidity: 99%

Dew point: 55 °F

Location of Schwäbisch GmündLocation

Historic Weather in Schwäbisch Gmünd — Graph

°F

Schwäbisch Gmünd temperature yesterday

Maximum temperature yesterday: 65 °F (at 5:00 PM)
Minimum temperature yesterday: 56 °F (at 10:00 AM)
Average temperature yesterday: 60 °F

Past Weeks' High & Low Weather Summary

 TemperatureHumidityPressure
High68 °F (Aug 28, 6:00 PM)100% (Aug 16, 9:00 AM)30.19 "Hg (Aug 16, 9:00 AM)
Low44 °F (Aug 24, 3:00 AM)46% (Aug 21, 2:00 PM)29.69 "Hg (Aug 26, 8:00 AM)
Average55 °F80%29.99 "Hg
* Reported Aug 15 8:00 AM — Aug 30 8:00 AM, Schwäbisch Gmünd, Weather by CustomWeather, © 2014

Note: Actual official high and low records may vary slightly from our data, if they occured in-between our weather recording intervals... More about our weather records

Advertising

Schwäbisch Gmünd weather history for previous 24 hours

 ConditionsComfort  
Time TempWeatherWind HumidityBarometerVisibility
8:00 AM
Aug 30
55 °FFog.5 mph99%30.11 "Hg12 mi
7:00 AM55 °FFog.6 mph100%30.10 "Hg0 mi
6:00 AM56 °FFog.5 mph100%30.10 "Hg0 mi
5:00 AM56 °FLow clouds.7 mph100%30.09 "Hg1 mi
4:00 AM56 °FLow clouds.5 mph100%30.09 "Hg1 mi
3:00 AM57 °FLow clouds.6 mph95%30.09 "Hg12 mi
2:00 AM57 °FLight rain. Low clouds.3 mph99%30.08 "Hg0 mi
1:00 AM57 °FOvercast.3 mph98%30.08 "Hg2 mi
12:00 AM58 °FLight rain. Overcast.3 mph98%30.07 "Hg3 mi
9:00 PM
Aug 29
59 °FOvercast.3 mph95%30.04 "Hg25 mi
8:00 PM61 °FSprinkles. Overcast.2 mph90%30.02 "Hg31 mi
7:00 PM63 °FSprinkles. Overcast.1 mph83%30.01 "Hg43 mi
6:00 PM64 °FPartly sunny.2 mph74%30.01 "Hg43 mi
5:00 PM65 °FPartly sunny.N/A75%30.01 "Hg37 mi
4:00 PM65 °FSprinkles. Overcast.5 mph81%30.02 "Hg22 mi
3:00 PM65 °FScattered clouds.5 mph80%30.03 "Hg43 mi
2:00 PM63 °FPartly sunny.5 mph84%30.04 "Hg43 mi
1:00 PM61 °FPartly sunny.5 mph93%30.05 "Hg37 mi
12:00 PM59 °FLow clouds.2 mph94%30.05 "Hg9 mi
11:00 AM56 °FLight rain. Low clouds.3 mph96%30.08 "Hg6 mi
10:00 AM56 °FRain. Overcast.6 mph98%30.08 "Hg6 mi
9:00 AM61 °FOvercast.3 mph86%30.03 "Hg47 mi
Weather by CustomWeather, © 2014

See weather overviewHow to use our weather pages